Zurück zum Katalog

CZ-4 DEB

AktivSSO
NORAD 35382·DEBRIS·🇨🇳 China

Gestartet Oct 21, 2003 von Taiyuan Satellite Launch Center

Loading…

Nächste Überflüge (nächste 24 Stunden)

TLE

AktuellSource: Space-Track

Epoche: Sep 14, 2026, 05:04 UTC

1 35382U 03049J   26257.21172137  .00000634  00000-0  26316-3 0  9997
2 35382  98.6874 173.2091 0141437 269.1532  89.3440 14.24718403166281

Verfolge CZ-4 DEB in Echtzeit mit AllMySat

Download on the App Store